Location: Newark
(54.0919°N, 2.6681°W)
Time: 15:19:32
(UTC+00:00)

ISS - Visible Passes

Search period start: 23 October 2019 00:00
Search period end: 02 November 2019 00:00
Orbit: 411 x 421 km, 51.6° (Epoch: 24 October)

Date Brightness Start Highest point End Pass type
(mag) Time Alt. Az. Time Alt. Az. Time Alt. Az.
25 Oct -0.5 05:37:51 10° SSE 05:38:37 11° SE 05:39:23 10° SE visible
27 Oct -1.3 05:35:11 10° SSW 05:37:42 20° SSE 05:40:12 10° E visible
28 Oct -1.0 04:47:33 11° S 04:49:16 14° SE 04:51:10 10° ESE visible
28 Oct -2.5 06:22:13 10° SW 06:25:23 40° SSE 06:28:34 10° E visible
29 Oct -2.2 05:34:10 12° SW 05:36:51 32° SSE 05:39:54 10° E visible
30 Oct -2.0 04:47:45 23° S 04:48:21 25° SSE 04:51:09 10° E visible
30 Oct -3.1 06:21:23 10° WSW 06:24:41 53° S 06:27:59 10° E visible
31 Oct -0.9 04:01:14 15° ESE 04:01:14 15° ESE 04:02:18 10° ESE visible
31 Oct -3.0 05:34:08 21° SW 05:36:05 46° SSE 05:39:20 10° E visible
01 Nov -2.7 04:47:33 38° SSE 04:47:33 38° SSE 04:50:40 10° E visible
01 Nov -3.3 06:20:39 10° W 06:23:59 57° S 06:27:17 10° ESE visible
